Regional Weather Roundup
Issued by NWS

Home | Current Version | Previous Version | Text Only | Print | Product List | Glossary Off
Versions: 1 2 3 4 5 6 7 8 9 10 11 12 13 14 15 16 17 18 19 20 21 22 23 24 25 26 27 28 29 30 31 32 33 34 35 36 37 38 39 40 41 42 43 44 45 46 47 48 49 50

000
ASUS45 KBOU 190707
RWRCO

WEATHER ROUNDUP FOR COLORADO
NATIONAL WEATHER SERVICE DENVER/BOULDER CO
100 AM MDT TUE AUG 19 2014

NOTE: "FAIR" INDICATES FEW OR NO CLOUDS BELOW 12000 FEET WITH NO
SIGNIFICANT WEATHER AND/OR OBSTRUCTIONS TO VISIBILITY.

COZ001>005-013-030-031-190800-
...NORTHWEST COLORADO...

CITY           SKY/WX    TMP DP  RH WIND       PRES   REMARKS
CRAIG          PTCLDY    63  41  44 S6        30.10S
HAYDEN         PTCLDY    57  39  51 SW8       30.13R
MEEKER         MOCLDY    60  40  47 NE5       30.11R
MOUNT WERNER   NOT AVBL
STEAMBOAT SPGS PTCLDY    53  41  65 CALM      30.15S
WALDEN         CLEAR     43  34  70 SE8       30.21F
$$

COZ006>008-011-190800-
...WEST CENTRAL VALLEYS...

CITY           SKY/WX    TMP DP  RH WIND       PRES   REMARKS
GRAND JUNCTION CLOUDY    73  38  27 E8        29.96R
MONTROSE       CLOUDY    77  37  23 SE9       30.06R
EAGLE          PTCLDY    55  39  54 E5        30.16F
RIFLE          MOCLDY    63  42  46 E6        30.02S
DELTA          NOT AVBL
NUCLA          CLOUDY    72  43  35 S7        30.14R
$$

COZ017>023-064>068-190800-
...SOUTHWEST COLORADO...

CITY           SKY/WX    TMP DP  RH WIND       PRES   REMARKS
DURANGO        CLOUDY    69  43  38 E13       30.18S
CORTEZ         CLEAR     72  47  40 NW5       30.13F
PAGOSA SPRINGS CLOUDY    62  42  47 CALM      30.28S THUNDER
TELLURIDE      CLOUDY    63  37  39 E10       30.34S
WOLF CREEK PAS NOT AVBL
$$

COZ009-010-012-014-032>034-037-058>063-190800-
...CENTRAL COLORADO...

CITY           SKY/WX    TMP DP  RH WIND       PRES   REMARKS
ASPEN          PTCLDY    59  37  44 SW7       30.21F
BUENA VISTA    PTCLDY    53  38  57 W8        30.26F
COPPER MTN     CLEAR     54  30  40 S21       30.54F
BERTHOUD PASS  FAIR      45  45 100 SE10      30.59F
COTTONWOOD PAS PTCLDY    61  32  33 CALM      30.40S
GUNNISON       CLOUDY    57  37  47 N10       30.26S
KREMMLING      CLEAR     50  34  53 CALM      30.22S
LEADVILLE      CLEAR     42  34  73 NE5       30.39F
MONARCH PASS   CLOUDY    46  32  57 S6        30.65F
SALIDA         PTCLDY    68  38  33 S8G20     30.29F
SUNLIGHT       MOCLDY    54  34  47 CALM      30.44F
WILKERSON PASS PTCLDY    50  32  50 SW5       30.52F
$$

COZ069>075-190800-
...SAN LUIS VALLEY/SANGRE DE CRISTO MOUNTAINS...

CITY           SKY/WX    TMP DP  RH WIND       PRES   REMARKS
ALAMOSA        CLOUDY    62  42  47 CALM      30.25F
LA VETA PASS   CLOUDY    54  37  54 S12       30.43F
SAGUACHE       CLOUDY    59  45  58 NE5       30.28S
$$

COZ035-036-038>040-190800-
...NORTHERN COLORADO FRONT RANGE...

CITY           SKY/WX    TMP DP  RH WIND       PRES   REMARKS
DENVER INTL AP PTCLDY    64  46  52 CALM      30.08S
DMNS CITY PARK   N/A     63  48  57 SE3       30.07S
AURORA         PTCLDY    58  47  65 CALM      30.10S
FRONT RANGE AP CLEAR     63  48  59 SW7       30.09S
ERIE MUNI ARPT CLEAR     59  50  71 CALM      30.07F
BOULDER MUN AP CLEAR     64  46  52 SW3       30.07F
CENTENNIAL     PTCLDY    61  46  57 W7        30.11S
BROOMFIELD     CLEAR     68  46  45 NW7       30.09F
FORT COLLINS   CLEAR     61  50  67 S6        30.06F
LONGMONT       CLEAR     61  51  69 CALM      30.08F
$$

COZ041-046-047-076>085-087-088-190800-
...PIKES PEAK/PALMER DIVIDE AND SOUTHERN FOOTHILLS...

CITY           SKY/WX    TMP DP  RH WIND       PRES   REMARKS
COLO. SPRINGS  PTCLDY    65  45  48 N6        30.14S
A. F. ACADEMY  PTCLDY    59  46  61 CALM      30.16S
ELLICOTT       PTCLDY    63  47  55 E15       30.09F
FALCON         PTCLDY    59  46  60 N5        30.19S
FORT CARSON    PTCLDY    63  46  55 N6        30.11R
LIMON          MOCLDY    63  55  75 SE7       30.06F
MONUMENT HILL  MOCLDY    55  45  67 SE9       30.19R
TRINIDAD       MOCLDY    70  44  39 W13       30.06F
$$

COZ042>045-048>051-090-091-190800-
...NORTHEAST COLORADO...

CITY           SKY/WX    TMP DP  RH WIND       PRES   REMARKS
GREELEY ARPT   CLEAR     57  48  72 CALM      30.05S
AKRON          CLEAR     64  53  67 S9        30.01F
BURLINGTON     CLOUDY    66  58  75 SE8       29.99S
WRAY             N/A     67  51  56 W3        29.95S
STERLING       CLEAR     64  59  82 CALM      29.96F
HOLYOKE        NOT AVBL
FORT MORGAN    CLEAR     62  54  74 S3        30.02S
$$

COZ086-089-092>099-190800-
...SOUTHEAST COLORADO...

CITY           SKY/WX    TMP DP  RH WIND       PRES   REMARKS
PUEBLO         MOCLDY    68  44  42 N10       30.01R
LA JUNTA       PTCLDY    69  48  47 NE8       29.93S
LAMAR          PTCLDY    75  47  36 SE14      29.89S
SPRINGFIELD      N/A     72  46  39 S13       29.98F
$$



USA.gov is the U.S. government's official web portal to all federal, state and local government web resources and services.